SL-14 DEB

Satellite information

Favourite Embed

Satellite Type and Status

DEBRISIN ORBIT

Key statistics

Satellite SL-14 DEB at a glance.

Uptime

12381

Days in orbit

Revolutions

≈ 13.2

Per day

Orbit

LEO

Low Earth Orbit

Inclination

82.5

Latest

Satellite identification and parameters

Extended collection of information and parameters for SL-14 DEB.

Object identification

Identified? True

Debris? True

Object name: SL-14 DEB

International designator: 1991-056BM

Object number (NORAD): 45323

Object ID (CCSDS): 45323

Country: COMMONWEALTH OF INDEPENDENT STATES (CIS)

Current information (Y/N): Y

RCS size: SMALL

Orbital parameters

Period: 109.05 minutes

Inclination: 82.5307 deg

SMA: 7560.951 km

Apoapsis: 1185.412 km

Periapsis: 1180.22 km

RAAN: 12.9982 deg

Eccentricy: 0.0003433

Argument of periapsis: 213.107 deg

Mean anomaly: 146.9839 deg

Mean motion: 13.20499109 rev/day

Mean motion (dot): 0.00000498 rev/day2

B* drag term: 0.0011996 1/REarth

Two-line elements (TLE)

Creation date: July 7, 2025, 6:34 p.m.

Reference frame: TEME

Reference center: EARTH

Epoch: July 7, 2025, 1:45 p.m. UTC

TLE line 0: 0 SL-14 DEB

TLE line 1: 1 45323U 91056BM 25188.57353104 .00000498 00000-0 11996-2 0 9999

TLE line 2: 2 45323 82.5307 12.9982 0003433 213.1070 146.9839 13.20499109257903

Live tracking on map

Real-time ground track for satellite SL-14 DEB.

In-orbit conjunctions

A list of the most updated potential collisions computed for object SL-14 DEB.

Target Orbit TCA Probability of collision Miss distance Type
OSCAR 30 SSO 2025-01-01 10:07:25 0.0006678212 78.0 (m) PAYLOAD

Associated space launch

Third generation meteorological satellite

SL-14 DEB was lifted into orbit during the mission ‘Tsiklon-3 | Meteor-3 5’, on board a Tsiklon-3 space rocket.

The launch took place on Aug. 15, 1991, 9:15 a.m. from 32/2.

For more information about the launch, click the button.

Launch to space Tsiklon-3 | Meteor-3 5
Tsiklon-3 | Meteor-3 5

Agency: N/A

Status: Launch Successful

Launch date: Aug. 15, 1991, 9:15 a.m. UTC

Rocket: Tsiklon-3

Launch pad: 32/2

Location: Plesetsk Cosmodrome, Russian Federation

...

Latest news about this satellite

There are no fresh news available about this satellite. Check back as we update our databases every day.


Newsletter sign-up

Weekly statistics, charts and insights to help you stay on top of the space industry.